Regional Weather Roundup
Issued by NWS

Home | Current Version | Previous Version | Graphics & Text | Print | Product List | Glossary Off
Versions: 1 2 3 4 5 6 7 8 9 10 11 12 13 14 15 16 17 18 19 20 21 22 23 24 25 26 27 28 29 30 31 32 33 34 35 36 37 38 39 40 41 42 43 44 45 46 47 48 49 50

000
ASUS43 KTOP 211259
RWRKS

WEATHER ROUNDUP FOR KANSAS
NATIONAL WEATHER SERVICE GOODLAND KS
800 AM CDT TUE OCT 21 2014

NOTE:  "FAIR" INDICATES FEW OR NO CLOUDS BELOW 12,000 FEET WITH NO
SIGNIFICANT WEATHER AND/OR OBSTRUCTIONS TO VISIBILITY.

KSZ001>006-013>018-027>032-041>047-211400-
NORTHWEST KANSAS

CITY           SKY/WX    TMP DP  RH WIND       PRES   REMARKS
GOODLAND       FOG       50  50 100 S13       30.07S VSB 1/4
HAYS           PTCLDY    43  37  81 CALM      30.08S
HILL CITY      CLEAR     39  37  92 W3        30.08F
RUSSELL        CLEAR     48  44  86 SE7       30.07S
$$

KSZ061>065-074>080-084>089-211400-
SOUTHWEST KANSAS

CITY           SKY/WX    TMP DP  RH WIND       PRES   REMARKS
DODGE CITY     FOG       56  54  93 SE8       30.07S VSB 1/4
ELKHART          N/A     50  46  86 W8          N/A
GARDEN CITY    FOG       50  48  93 CALM      30.07S VSB 1/2
GREAT BEND     PTCLDY    46  41  81 CALM      30.09R
LIBERAL        CLOUDY    54  48  82 CALM      30.09R VSB<1/4
$$

KSZ066>073-081>083-090>101-211400-
SOUTHEAST KANSAS

CITY           SKY/WX    TMP DP  RH WIND       PRES   REMARKS
CHANUTE        CLEAR     45  44  97 CALM      30.11R
COFFEYVILLE    FOG       50  50 100 CALM      30.10R VSB 1/4
HUTCHINSON     MOCLDY    53  50  89 SE3       30.09S
NEWTON         CLEAR     52  43  71 SE6       30.11S
PARSONS        CLEAR     46  45  96 CALM      30.12R
WICHITA INTL   PTCLDY    55  51  86 E6        30.09R
WICHITA JABRA  MOCLDY    50  46  86 NE3       30.09S
WINFIELD       MOCLDY    55  53  93 E7        30.10R
$$

KSZ007>012-019>026-033>040-048>060-102>105-211400-
NORTHEAST KANSAS

CITY           SKY/WX    TMP DP  RH WIND       PRES   REMARKS
CONCORDIA      CLEAR     42  41  96 CALM      30.10R
EMPORIA        CLEAR     44  42  93 CALM      30.11R
LAWRENCE       FOG       36  35  96 CALM      30.13R VSB 3/4
MANHATTAN      CLEAR     39  38  96 CALM      30.11R FOG
OLATHE IND     CLEAR     47  43  86 CALM      30.12S
OLATHE EXE     CLEAR     48  42  80 CALM      30.11R
SALINA         CLEAR     44  41  89 CALM      30.09S
TOPEKA BILLARD PTCLDY    40  39  97 CALM      30.12S FOG
TOPEKA FORBES  CLEAR     39  37  92 N3        30.11S FOG
$$


USA.gov is the U.S. government's official web portal to all federal, state and local government web resources and services.